Time,TemperatureF,DewpointF,PressureIn,WindDirection,WindDirectionDegrees,WindSpeedMPH,WindSpeedGustMPH,Humidity,HourlyPrecipIn,Conditions,Clouds,dailyrainin,SolarRadiationWatts/m^2,SoftwareType,DateUTC
2013-01-19 00:04:00,38.2,31.9,29.85,WSW,246,0.0,5.0,78,0.00,,,0.00,0,Wunderground v.1.15,2013-01-19 06:04:00,
2013-01-19 00:10:00,38.2,31.9,29.85,WSW,242,5.0,5.0,78,0.00,,,0.00,0,Wunderground v.1.15,2013-01-19 06:10:00,
2013-01-19 00:15:00,38.1,31.8,29.85,SW,233,5.0,7.0,78,0.00,,,0.00,0,Wunderground v.1.15,2013-01-19 06:15:00,
2013-01-19 00:21:00,38.1,32.2,29.85,WSW,252,4.0,6.0,79,0.00,,,0.00,0,Wunderground v.1.15,2013-01-19 06:21:00,
2013-01-19 00:26:00,38.1,32.2,29.85,SW,218,3.0,6.0,79,0.00,,,0.00,0,Wunderground v.1.15,2013-01-19 06:26:00,
2013-01-19 00:31:00,38.2,32.3,29.85,SW,234,4.0,5.0,79,0.00,,,0.00,0,Wunderground v.1.15,2013-01-19 06:31:00,
2013-01-19 00:36:00,38.2,32.3,29.85,WSW,243,4.0,6.0,79,0.00,,,0.00,0,Wunderground v.1.15,2013-01-19 06:36:00,
2013-01-19 00:42:00,38.1,32.2,29.85,WSW,242,3.0,3.0,79,0.00,,,0.00,0,Wunderground v.1.15,2013-01-19 06:42:00,
2013-01-19 00:47:00,38.1,32.2,29.85,WSW,247,4.0,4.0,79,0.00,,,0.00,0,Wunderground v.1.15,2013-01-19 06:47:00,
2013-01-19 00:52:00,38.0,32.1,29.85,WSW,242,2.0,2.0,79,0.00,,,0.00,0,Wunderground v.1.15,2013-01-19 06:52:00,
2013-01-19 00:58:00,38.0,32.1,29.85,WSW,251,4.0,4.0,79,0.00,,,0.00,0,Wunderground v.1.15,2013-01-19 06:58:00,
2013-01-19 01:10:00,37.8,31.9,29.85,WSW,246,2.0,4.0,79,0.00,,,0.00,0,Wunderground v.1.15,2013-01-19 07:10:00,
2013-01-19 01:15:00,37.7,31.8,29.84,WSW,244,1.0,2.0,79,0.00,,,0.00,0,Wunderground v.1.15,2013-01-19 07:15:00,
2013-01-19 01:21:00,37.4,31.5,29.85,WSW,244,0.0,1.0,79,0.00,,,0.00,0,Wunderground v.1.15,2013-01-19 07:21:00,
2013-01-19 01:26:00,37.3,31.7,29.85,WSW,244,0.0,2.0,80,0.00,,,0.00,0,Wunderground v.1.15,2013-01-19 07:26:00,
2013-01-19 01:32:00,37.1,31.5,29.85,WSW,244,0.0,1.0,80,0.00,,,0.00,0,Wunderground v.1.15,2013-01-19 07:32:00,
2013-01-19 01:37:00,36.8,31.2,29.85,WSW,244,0.0,1.0,80,0.00,,,0.00,0,Wunderground v.1.15,2013-01-19 07:37:00,
2013-01-19 01:43:00,36.4,30.8,29.85,WSW,244,0.0,0.0,80,0.00,,,0.00,0,Wunderground v.1.15,2013-01-19 07:43:00,
2013-01-19 01:49:00,36.0,30.7,29.86,WSW,244,1.0,1.0,81,0.00,,,0.00,0,Wunderground v.1.15,2013-01-19 07:49:00,
2013-01-19 01:54:00,35.5,30.2,29.86,WSW,244,1.0,3.0,81,0.00,,,0.00,0,Wunderground v.1.15,2013-01-19 07:54:00,
2013-01-19 01:59:00,35.2,30.3,29.87,WSW,243,0.0,3.0,82,0.00,,,0.00,0,Wunderground v.1.15,2013-01-19 07:59:00,
2013-01-19 02:04:00,35.0,30.4,29.87,WSW,243,0.0,2.0,83,0.00,,,0.00,0,Wunderground v.1.15,2013-01-19 08:04:00,
2013-01-19 02:09:00,34.9,30.6,29.87,WSW,243,0.0,2.0,84,0.00,,,0.00,0,Wunderground v.1.15,2013-01-19 08:09:00,
2013-01-19 02:14:00,34.8,30.5,29.87,WSW,243,0.0,0.0,84,0.00,,,0.00,0,Wunderground v.1.15,2013-01-19 08:14:00,
2013-01-19 02:19:00,34.6,30.3,29.87,WSW,243,0.0,0.0,84,0.00,,,0.00,0,Wunderground v.1.15,2013-01-19 08:19:00,
2013-01-19 02:24:00,34.6,30.6,29.87,WSW,243,0.0,2.0,85,0.00,,,0.00,0,Wunderground v.1.15,2013-01-19 08:24:00,
2013-01-19 02:29:00,34.8,30.8,29.86,WSW,243,1.0,2.0,85,0.00,,,0.00,0,Wunderground v.1.15,2013-01-19 08:29:00,
2013-01-19 02:34:00,35.0,30.9,29.86,WSW,252,0.0,2.0,85,0.00,,,0.00,0,Wunderground v.1.15,2013-01-19 08:34:00,
2013-01-19 02:39:00,35.2,30.9,29.86,WSW,252,0.0,2.0,84,0.00,,,0.00,0,Wunderground v.1.15,2013-01-19 08:39:00,
2013-01-19 02:44:00,35.3,30.9,29.86,WSW,252,0.0,3.0,84,0.00,,,0.00,0,Wunderground v.1.15,2013-01-19 08:44:00,
2013-01-19 02:49:00,35.5,31.1,29.86,WSW,252,2.0,3.0,84,0.00,,,0.00,0,Wunderground v.1.15,2013-01-19 08:49:00,
2013-01-19 02:54:00,35.6,31.2,29.86,WSW,250,0.0,5.0,84,0.00,,,0.00,0,Wunderground v.1.15,2013-01-19 08:54:00,
2013-01-19 02:59:00,35.7,31.3,29.86,WSW,247,0.0,5.0,84,0.00,,,0.00,0,Wunderground v.1.15,2013-01-19 08:59:00,
2013-01-19 03:04:00,35.9,31.5,29.85,SW,223,4.0,4.0,84,0.00,,,0.00,0,Wunderground v.1.15,2013-01-19 09:04:00,
2013-01-19 03:09:00,36.2,31.5,29.85,WSW,244,3.0,7.0,83,0.00,,,0.00,0,Wunderground v.1.15,2013-01-19 09:09:00,
2013-01-19 03:14:00,36.4,31.7,29.86,WSW,244,0.0,3.0,83,0.00,,,0.00,0,Wunderground v.1.15,2013-01-19 09:14:00,
2013-01-19 03:19:00,36.5,31.8,29.85,WSW,244,0.0,3.0,83,0.00,,,0.00,0,Wunderground v.1.15,2013-01-19 09:19:00,
2013-01-19 03:24:00,36.5,31.5,29.85,WSW,244,0.0,2.0,82,0.00,,,0.00,0,Wunderground v.1.15,2013-01-19 09:24:00,
2013-01-19 03:29:00,36.5,31.5,29.85,WSW,244,1.0,3.0,82,0.00,,,0.00,0,Wunderground v.1.15,2013-01-19 09:29:00,
2013-01-19 03:34:00,36.5,31.5,29.85,WSW,244,0.0,2.0,82,0.00,,,0.00,0,Wunderground v.1.15,2013-01-19 09:34:00,
2013-01-19 03:39:00,36.4,31.4,29.85,WSW,244,0.0,2.0,82,0.00,,,0.00,0,Wunderground v.1.15,2013-01-19 09:39:00,
2013-01-19 03:44:00,36.3,31.3,29.85,WSW,244,0.0,1.0,82,0.00,,,0.00,0,Wunderground v.1.15,2013-01-19 09:44:00,
2013-01-19 03:49:00,36.3,31.3,29.85,WSW,244,0.0,1.0,82,0.00,,,0.00,0,Wunderground v.1.15,2013-01-19 09:49:00,
2013-01-19 03:54:00,36.2,31.2,29.85,WSW,244,0.0,1.0,82,0.00,,,0.00,0,Wunderground v.1.15,2013-01-19 09:54:00,
2013-01-19 03:59:00,36.2,31.5,29.85,WSW,244,0.0,2.0,83,0.00,,,0.00,0,Wunderground v.1.15,2013-01-19 09:59:00,
2013-01-19 04:04:00,36.1,31.4,29.85,WSW,244,0.0,0.0,83,0.00,,,0.00,0,Wunderground v.1.15,2013-01-19 10:04:00,
2013-01-19 04:09:00,36.1,31.4,29.85,WSW,244,0.0,0.0,83,0.00,,,0.00,0,Wunderground v.1.15,2013-01-19 10:09:00,
2013-01-19 04:14:00,36.0,31.3,29.85,WSW,244,0.0,1.0,83,0.00,,,0.00,0,Wunderground v.1.15,2013-01-19 10:14:00,
2013-01-19 04:19:00,35.9,31.2,29.85,WSW,244,2.0,2.0,83,0.00,,,0.00,0,Wunderground v.1.15,2013-01-19 10:19:00,
2013-01-19 04:24:00,35.8,31.1,29.84,WSW,244,0.0,2.0,83,0.00,,,0.00,0,Wunderground v.1.15,2013-01-19 10:24:00,
2013-01-19 04:29:00,35.6,30.9,29.85,WSW,244,2.0,3.0,83,0.00,,,0.00,0,Wunderground v.1.15,2013-01-19 10:29:00,
2013-01-19 04:34:00,35.3,30.9,29.84,South,189,1.0,4.0,84,0.00,,,0.00,0,Wunderground v.1.15,2013-01-19 10:34:00,
2013-01-19 04:40:00,35.0,30.9,29.84,South,189,0.0,1.0,85,0.00,,,0.00,0,Wunderground v.1.15,2013-01-19 10:40:00,
2013-01-19 04:45:00,34.9,30.8,29.84,South,189,2.0,2.0,85,0.00,,,0.00,0,Wunderground v.1.15,2013-01-19 10:45:00,
2013-01-19 04:50:00,34.7,30.7,29.83,South,188,0.0,1.0,85,0.00,,,0.00,0,Wunderground v.1.15,2013-01-19 10:50:00,
2013-01-19 04:55:00,34.6,30.8,29.83,South,188,2.0,2.0,86,0.00,,,0.00,0,Wunderground v.1.15,2013-01-19 10:55:00,
2013-01-19 05:00:00,34.6,30.8,29.83,South,172,0.0,0.0,86,0.00,,,0.00,0,Wunderground v.1.15,2013-01-19 11:00:00,
2013-01-19 05:05:00,34.6,30.8,29.84,SW,233,2.0,2.0,86,0.00,,,0.00,0,Wunderground v.1.15,2013-01-19 11:05:00,
2013-01-19 05:10:00,34.6,30.8,29.84,WSW,239,0.0,1.0,86,0.00,,,0.00,0,Wunderground v.1.15,2013-01-19 11:10:00,
2013-01-19 06:48:00,34.6,31.1,29.83,SW,230,0.0,1.0,87,0.00,,,0.00,0,Wunderground v.1.15,2013-01-19 12:48:00,
2013-01-19 06:53:00,34.6,31.1,29.82,SW,230,0.0,2.0,87,0.00,,,0.00,0,Wunderground v.1.15,2013-01-19 12:53:00,
2013-01-19 06:58:00,34.7,31.2,29.82,SW,230,0.0,2.0,87,0.00,,,0.00,0,Wunderground v.1.15,2013-01-19 12:58:00,
2013-01-19 07:03:00,34.6,30.8,29.82,SW,230,0.0,0.0,86,0.00,,,0.00,0,Wunderground v.1.15,2013-01-19 13:03:00,
2013-01-19 07:08:00,34.6,30.8,29.82,SW,230,1.0,3.0,86,0.00,,,0.00,0,Wunderground v.1.15,2013-01-19 13:08:00,
2013-01-19 07:13:00,34.6,31.1,29.81,SW,230,0.0,3.0,87,0.00,,,0.00,0,Wunderground v.1.15,2013-01-19 13:13:00,
2013-01-19 07:18:00,34.5,30.7,29.81,South,169,3.0,4.0,86,0.00,,,0.00,0,Wunderground v.1.15,2013-01-19 13:18:00,
2013-01-19 07:23:00,34.5,31.0,29.81,South,169,2.0,4.0,87,0.00,,,0.00,0,Wunderground v.1.15,2013-01-19 13:23:00,
2013-01-19 07:28:00,34.4,30.9,29.81,South,169,1.0,4.0,87,0.00,,,0.00,0,Wunderground v.1.15,2013-01-19 13:28:00,
2013-01-19 07:33:00,34.4,30.9,29.81,South,169,0.0,1.0,87,0.00,,,0.00,5,Wunderground v.1.15,2013-01-19 13:33:00,
2013-01-19 07:38:00,34.4,30.9,29.81,South,169,0.0,4.0,87,0.00,,,0.00,9,Wunderground v.1.15,2013-01-19 13:38:00,
2013-01-19 07:43:00,34.4,30.9,29.81,South,169,0.0,1.0,87,0.00,,,0.00,11,Wunderground v.1.15,2013-01-19 13:43:00,
2013-01-19 07:48:00,34.6,31.1,29.81,South,169,0.0,2.0,87,0.00,,,0.00,14,Wunderground v.1.15,2013-01-19 13:48:00,
2013-01-19 07:55:00,34.7,31.2,29.81,South,169,1.0,1.0,87,0.00,,,0.00,19,Wunderground v.1.15,2013-01-19 13:55:00,
2013-01-19 08:00:00,34.8,31.3,29.81,South,169,1.0,1.0,87,0.00,,,0.00,21,Wunderground v.1.15,2013-01-19 14:00:00,
2013-01-19 08:05:00,34.9,31.4,29.81,South,169,0.0,2.0,87,0.00,,,0.00,23,Wunderground v.1.15,2013-01-19 14:05:00,
2013-01-19 08:10:00,35.0,31.5,29.80,South,169,0.0,1.0,87,0.00,,,0.00,25,Wunderground v.1.15,2013-01-19 14:10:00,
2013-01-19 08:15:00,35.2,31.7,29.80,WSW,239,5.0,5.0,87,0.00,,,0.00,25,Wunderground v.1.15,2013-01-19 14:15:00,
2013-01-19 08:20:00,35.5,31.7,29.80,WSW,242,0.0,1.0,86,0.00,,,0.00,26,Wunderground v.1.15,2013-01-19 14:20:00,
2013-01-19 08:25:00,35.8,32.0,29.80,WSW,242,0.0,3.0,86,0.00,,,0.00,33,Wunderground v.1.15,2013-01-19 14:25:00,
2013-01-19 08:30:00,36.1,32.0,29.80,WSW,239,0.0,2.0,85,0.00,,,0.00,39,Wunderground v.1.15,2013-01-19 14:30:00,
2013-01-19 08:35:00,36.3,32.2,29.79,WSW,239,0.0,4.0,85,0.00,,,0.00,39,Wunderground v.1.15,2013-01-19 14:35:00,
2013-01-19 08:40:00,36.5,32.1,29.79,WSW,240,0.0,1.0,84,0.00,,,0.00,40,Wunderground v.1.15,2013-01-19 14:40:00,
2013-01-19 08:45:00,36.6,32.2,29.79,WSW,242,0.0,6.0,84,0.00,,,0.00,44,Wunderground v.1.15,2013-01-19 14:45:00,
2013-01-19 08:50:00,36.7,32.3,29.79,SW,219,2.0,2.0,84,0.00,,,0.00,44,Wunderground v.1.15,2013-01-19 14:50:00,
2013-01-19 08:55:00,36.8,32.1,29.79,South,175,3.0,4.0,83,0.00,,,0.00,42,Wunderground v.1.15,2013-01-19 14:55:00,
2013-01-19 09:00:00,36.9,32.2,29.79,WNW,286,0.0,2.0,83,0.00,,,0.00,49,Wunderground v.1.15,2013-01-19 15:00:00,
2013-01-19 09:05:00,37.0,32.3,29.78,SSE,164,2.0,7.0,83,0.00,,,0.00,54,Wunderground v.1.15,2013-01-19 15:05:00,
2013-01-19 09:10:00,37.0,32.3,29.79,South,169,5.0,5.0,83,0.00,,,0.00,56,Wunderground v.1.15,2013-01-19 15:10:00,
2013-01-19 09:15:00,37.0,32.3,29.79,SW,230,0.0,5.0,83,0.00,,,0.00,56,Wunderground v.1.15,2013-01-19 15:15:00,
2013-01-19 09:20:00,37.1,32.4,29.78,South,169,2.0,6.0,83,0.00,,,0.00,65,Wunderground v.1.15,2013-01-19 15:20:00,
2013-01-19 09:25:00,37.2,32.5,29.78,SSE,167,2.0,6.0,83,0.00,,,0.00,69,Wunderground v.1.15,2013-01-19 15:25:00,
2013-01-19 09:30:00,37.3,32.3,29.77,South,182,2.0,4.0,82,0.00,,,0.00,65,Wunderground v.1.15,2013-01-19 15:30:00,
2013-01-19 09:35:00,37.2,32.2,29.77,SW,236,0.0,5.0,82,0.00,,,0.00,67,Wunderground v.1.15,2013-01-19 15:35:00,
2013-01-19 09:40:00,37.3,32.3,29.78,WNW,302,0.0,2.0,82,0.00,,,0.00,76,Wunderground v.1.15,2013-01-19 15:40:00,
2013-01-19 09:45:00,37.5,32.5,29.78,WNW,302,0.0,2.0,82,0.00,,,0.00,81,Wunderground v.1.15,2013-01-19 15:45:00,
2013-01-19 09:50:00,37.5,32.5,29.80,WSW,253,1.0,6.0,82,0.00,,,0.00,88,Wunderground v.1.15,2013-01-19 15:50:00,
2013-01-19 09:55:00,37.7,32.7,29.78,WSW,257,1.0,6.0,82,0.00,,,0.00,93,Wunderground v.1.15,2013-01-19 15:55:00,
2013-01-19 10:01:00,37.9,32.9,29.79,WSW,254,3.0,3.0,82,0.00,,,0.00,107,Wunderground v.1.15,2013-01-19 16:01:00,
2013-01-19 10:05:00,38.2,32.9,29.78,SW,234,2.0,6.0,81,0.00,,,0.00,120,Wunderground v.1.15,2013-01-19 16:05:00,
2013-01-19 10:11:00,38.3,33.0,29.78,SW,230,3.0,6.0,81,0.00,,,0.00,141,Wunderground v.1.15,2013-01-19 16:11:00,
2013-01-19 10:16:00,38.5,33.2,29.77,SSE,161,2.0,6.0,81,0.00,,,0.00,155,Wunderground v.1.15,2013-01-19 16:16:00,
2013-01-19 10:20:00,38.6,33.0,29.76,SSW,207,1.0,4.0,80,0.00,,,0.00,123,Wunderground v.1.15,2013-01-19 16:20:00,
2013-01-19 10:25:00,38.6,33.0,29.76,SSW,194,2.0,4.0,80,0.00,,,0.00,121,Wunderground v.1.15,2013-01-19 16:25:00,
2013-01-19 10:30:00,38.8,33.2,29.77,SW,224,3.0,5.0,80,0.00,,,0.00,123,Wunderground v.1.15,2013-01-19 16:30:00,
2013-01-19 10:36:00,38.9,32.9,29.77,WSW,250,2.0,7.0,79,0.00,,,0.00,132,Wunderground v.1.15,2013-01-19 16:36:00,
2013-01-19 10:41:00,39.0,33.0,29.77,WSW,242,2.0,6.0,79,0.00,,,0.00,148,Wunderground v.1.15,2013-01-19 16:41:00,
2013-01-19 10:46:00,39.1,33.1,29.76,WSW,242,2.0,6.0,79,0.00,,,0.00,155,Wunderground v.1.15,2013-01-19 16:46:00,
2013-01-19 10:51:00,39.2,33.2,29.76,SW,227,0.0,2.0,79,0.00,,,0.00,156,Wunderground v.1.15,2013-01-19 16:51:00,
2013-01-19 10:56:00,39.2,33.2,29.76,West,261,2.0,7.0,79,0.00,,,0.00,156,Wunderground v.1.15,2013-01-19 16:56:00,
2013-01-19 11:02:00,39.4,33.4,29.75,SW,231,4.0,5.0,79,0.00,,,0.00,139,Wunderground v.1.15,2013-01-19 17:02:00,
2013-01-19 11:07:00,39.4,33.1,29.75,WSW,240,4.0,6.0,78,0.00,,,0.00,160,Wunderground v.1.15,2013-01-19 17:07:00,
2013-01-19 11:12:00,39.5,33.2,29.75,WSW,246,7.0,7.0,78,0.00,,,0.00,211,Wunderground v.1.15,2013-01-19 17:12:00,
2013-01-19 11:17:00,39.7,33.4,29.74,WSW,243,4.0,7.0,78,0.00,,,0.00,285,Wunderground v.1.15,2013-01-19 17:17:00,
2013-01-19 11:24:00,40.1,33.5,29.73,WSW,245,0.0,7.0,77,0.00,,,0.00,279,Wunderground v.1.15,2013-01-19 17:24:00,
2013-01-19 11:29:00,40.5,33.9,29.72,WSW,246,1.0,7.0,77,0.00,,,0.00,285,Wunderground v.1.15,2013-01-19 17:29:00,
2013-01-19 11:34:00,40.8,33.8,29.72,SSW,195,1.0,7.0,76,0.00,,,0.00,253,Wunderground v.1.15,2013-01-19 17:34:00,
2013-01-19 11:39:00,40.9,33.6,29.72,WSW,244,0.0,8.0,75,0.00,,,0.00,232,Wunderground v.1.15,2013-01-19 17:39:00,
2013-01-19 11:44:00,41.1,33.8,29.71,WSW,249,3.0,9.0,75,0.00,,,0.00,202,Wunderground v.1.15,2013-01-19 17:44:00,
2013-01-19 11:49:00,41.1,33.8,29.71,WSW,248,3.0,9.0,75,0.00,,,0.00,441,Wunderground v.1.15,2013-01-19 17:49:00,
2013-01-19 11:54:00,41.5,34.2,29.71,WSW,246,0.0,6.0,75,0.00,,,0.00,209,Wunderground v.1.15,2013-01-19 17:54:00,
2013-01-19 11:59:00,41.7,34.0,29.71,SSW,194,2.0,8.0,74,0.00,,,0.00,462,Wunderground v.1.15,2013-01-19 17:59:00,
2013-01-19 12:04:00,41.9,34.2,29.71,SW,232,1.0,6.0,74,0.00,,,0.00,283,Wunderground v.1.15,2013-01-19 18:04:00,
2013-01-19 12:10:00,42.1,34.1,29.70,WSW,243,5.0,5.0,73,0.00,,,0.00,255,Wunderground v.1.15,2013-01-19 18:10:00,
2013-01-19 12:15:00,42.2,34.2,29.70,WSW,246,6.0,6.0,73,0.00,,,0.00,230,Wunderground v.1.15,2013-01-19 18:15:00,
2013-01-19 12:20:00,42.4,34.4,29.70,SW,234,4.0,6.0,73,0.00,,,0.00,330,Wunderground v.1.15,2013-01-19 18:20:00,
2013-01-19 12:25:00,42.7,34.3,29.69,WSW,248,8.0,10.0,72,0.00,,,0.00,236,Wunderground v.1.15,2013-01-19 18:25:00,
2013-01-19 12:30:00,42.6,34.2,29.69,WSW,240,2.0,5.0,72,0.00,,,0.00,269,Wunderground v.1.15,2013-01-19 18:30:00,
2013-01-19 12:35:00,42.8,34.4,29.69,WSW,248,4.0,8.0,72,0.00,,,0.00,230,Wunderground v.1.15,2013-01-19 18:35:00,
2013-01-19 12:40:00,43.0,34.2,29.69,WSW,246,4.0,6.0,71,0.00,,,0.00,239,Wunderground v.1.15,2013-01-19 18:40:00,
2013-01-19 12:46:00,42.8,34.0,29.69,WSW,249,13.0,19.0,71,0.00,,,0.00,239,Wunderground v.1.15,2013-01-19 18:46:00,
2013-01-19 12:51:00,42.5,33.8,29.69,West,261,3.0,8.0,71,0.00,,,0.00,232,Wunderground v.1.15,2013-01-19 18:51:00,
2013-01-19 12:56:00,42.4,34.0,29.69,SW,233,5.0,9.0,72,0.00,,,0.00,250,Wunderground v.1.15,2013-01-19 18:56:00,
2013-01-19 13:01:00,42.4,34.0,29.69,SSW,209,8.0,10.0,72,0.00,,,0.00,246,Wunderground v.1.15,2013-01-19 19:01:00,
2013-01-19 13:07:00,42.4,34.0,29.69,WSW,254,4.0,10.0,72,0.00,,,0.00,214,Wunderground v.1.15,2013-01-19 19:07:00,
2013-01-19 13:12:00,42.4,34.0,29.69,West,261,5.0,7.0,72,0.00,,,0.00,178,Wunderground v.1.15,2013-01-19 19:12:00,
2013-01-19 13:18:00,42.7,34.3,29.70,West,271,3.0,10.0,72,0.00,,,0.00,84,Wunderground v.1.15,2013-01-19 19:18:00,
2013-01-19 13:23:00,42.8,34.4,29.69,SW,233,6.0,6.0,72,0.00,,,0.00,160,Wunderground v.1.15,2013-01-19 19:23:00,
2013-01-19 13:29:00,43.1,34.3,29.68,SW,233,4.0,9.0,71,0.00,,,0.00,84,Wunderground v.1.15,2013-01-19 19:29:00,
2013-01-19 13:34:00,43.3,34.2,29.68,West,265,7.0,10.0,70,0.00,,,0.00,197,Wunderground v.1.15,2013-01-19 19:34:00,
2013-01-19 13:39:00,43.5,34.4,29.68,SW,232,4.0,10.0,70,0.00,,,0.00,327,Wunderground v.1.15,2013-01-19 19:39:00,
2013-01-19 13:44:00,43.8,34.3,29.67,SW,236,8.0,11.0,69,0.00,,,0.00,462,Wunderground v.1.15,2013-01-19 19:44:00,
2013-01-19 13:49:00,44.0,34.5,29.67,WSW,253,3.0,11.0,69,0.00,,,0.00,250,Wunderground v.1.15,2013-01-19 19:49:00,
2013-01-19 13:54:00,44.3,34.8,29.67,WSW,238,6.0,8.0,69,0.00,,,0.00,482,Wunderground v.1.15,2013-01-19 19:54:00,
2013-01-19 13:59:00,44.9,35.0,29.67,WSW,258,3.0,9.0,68,0.00,,,0.00,380,Wunderground v.1.15,2013-01-19 19:59:00,
2013-01-19 14:04:00,45.1,34.8,29.66,West,259,5.0,10.0,67,0.00,,,0.00,343,Wunderground v.1.15,2013-01-19 20:04:00,
2013-01-19 14:09:00,45.3,35.0,29.66,WSW,257,4.0,10.0,67,0.00,,,0.00,318,Wunderground v.1.15,2013-01-19 20:09:00,
2013-01-19 14:15:00,45.4,34.7,29.66,WSW,246,7.0,10.0,66,0.00,,,0.00,338,Wunderground v.1.15,2013-01-19 20:15:00,
2013-01-19 14:20:00,45.5,34.8,29.66,WSW,254,4.0,5.0,66,0.00,,,0.00,185,Wunderground v.1.15,2013-01-19 20:20:00,
2013-01-19 14:25:00,45.5,34.8,29.66,South,177,1.0,10.0,66,0.00,,,0.00,209,Wunderground v.1.15,2013-01-19 20:25:00,
2013-01-19 14:30:00,45.3,35.0,29.66,WSW,238,1.0,3.0,67,0.00,,,0.00,153,Wunderground v.1.15,2013-01-19 20:30:00,
2013-01-19 14:35:00,45.2,34.9,29.67,WSW,239,3.0,6.0,67,0.00,,,0.00,304,Wunderground v.1.15,2013-01-19 20:35:00,
2013-01-19 14:41:00,45.2,34.9,29.68,WSW,245,2.0,4.0,67,0.00,,,0.00,190,Wunderground v.1.15,2013-01-19 20:41:00,
2013-01-19 14:46:00,45.1,34.8,29.68,WSW,248,1.0,5.0,67,0.00,,,0.00,197,Wunderground v.1.15,2013-01-19 20:46:00,
2013-01-19 14:51:00,45.2,34.9,29.68,WSW,256,1.0,7.0,67,0.00,,,0.00,172,Wunderground v.1.15,2013-01-19 20:51:00,
2013-01-19 14:57:00,45.1,34.4,29.68,SW,236,5.0,9.0,66,0.00,,,0.00,193,Wunderground v.1.15,2013-01-19 20:57:00,
2013-01-19 15:02:00,45.0,34.3,29.68,WSW,242,3.0,8.0,66,0.00,,,0.00,260,Wunderground v.1.15,2013-01-19 21:02:00,
2013-01-19 15:07:00,45.1,34.4,29.68,WSW,240,5.0,11.0,66,0.00,,,0.00,274,Wunderground v.1.15,2013-01-19 21:07:00,
2013-01-19 15:12:00,45.2,34.9,29.68,West,266,4.0,8.0,67,0.00,,,0.00,160,Wunderground v.1.15,2013-01-19 21:12:00,
2013-01-19 15:17:00,45.2,34.5,29.68,SW,233,1.0,11.0,66,0.00,,,0.00,141,Wunderground v.1.15,2013-01-19 21:17:00,
2013-01-19 15:22:00,45.1,34.4,29.67,WSW,253,3.0,6.0,66,0.00,,,0.00,179,Wunderground v.1.15,2013-01-19 21:22:00,
2013-01-19 15:28:00,45.2,34.5,29.67,WSW,248,3.0,9.0,66,0.00,,,0.00,158,Wunderground v.1.15,2013-01-19 21:28:00,
2013-01-19 15:39:00,45.1,34.4,29.68,West,275,5.0,8.0,66,0.00,,,0.00,156,Wunderground v.1.15,2013-01-19 21:39:00,
2013-01-19 15:44:00,45.1,34.4,29.68,SW,229,4.0,9.0,66,0.00,,,0.00,88,Wunderground v.1.15,2013-01-19 21:44:00,
2013-01-19 15:49:00,45.1,34.4,29.68,WSW,252,3.0,9.0,66,0.00,,,0.00,62,Wunderground v.1.15,2013-01-19 21:49:00,
2013-01-19 15:55:00,44.9,34.6,29.69,SSW,200,5.0,7.0,67,0.00,,,0.00,69,Wunderground v.1.15,2013-01-19 21:55:00,
2013-01-19 16:00:00,44.7,34.4,29.69,SW,227,8.0,8.0,67,0.00,,,0.00,65,Wunderground v.1.15,2013-01-19 22:00:00,
2013-01-19 16:05:00,44.6,34.3,29.69,WSW,255,3.0,8.0,67,0.00,,,0.00,40,Wunderground v.1.15,2013-01-19 22:05:00,
2013-01-19 16:10:00,44.3,34.0,29.68,WSW,246,2.0,5.0,67,0.00,,,0.00,47,Wunderground v.1.15,2013-01-19 22:10:00,
2013-01-19 16:15:00,44.0,34.1,29.69,WSW,241,3.0,6.0,68,0.00,,,0.00,32,Wunderground v.1.15,2013-01-19 22:15:00,
2013-01-19 16:21:00,43.7,34.2,29.68,SW,236,1.0,5.0,69,0.00,,,0.00,32,Wunderground v.1.15,2013-01-19 22:21:00,
2013-01-19 16:26:00,43.5,34.0,29.68,WSW,248,0.0,6.0,69,0.00,,,0.00,23,Wunderground v.1.15,2013-01-19 22:26:00,
2013-01-19 16:31:00,43.3,33.8,29.69,WNW,286,3.0,3.0,69,0.00,,,0.00,21,Wunderground v.1.15,2013-01-19 22:31:00,
2013-01-19 16:37:00,43.0,33.9,29.69,WSW,244,3.0,7.0,70,0.00,,,0.00,12,Wunderground v.1.15,2013-01-19 22:37:00,
2013-01-19 16:43:00,42.9,33.8,29.69,WSW,254,4.0,8.0,70,0.00,,,0.00,11,Wunderground v.1.15,2013-01-19 22:43:00,
2013-01-19 16:48:00,43.1,33.6,29.69,WSW,244,7.0,13.0,69,0.00,,,0.00,7,Wunderground v.1.15,2013-01-19 22:48:00,
2013-01-19 16:53:00,43.2,33.3,29.69,West,261,5.0,11.0,68,0.00,,,0.00,5,Wunderground v.1.15,2013-01-19 22:53:00,
2013-01-19 16:58:00,43.3,33.1,29.69,West,269,5.0,13.0,67,0.00,,,0.00,0,Wunderground v.1.15,2013-01-19 22:58:00,
2013-01-19 17:03:00,43.4,33.2,29.69,SW,228,9.0,16.0,67,0.00,,,0.00,0,Wunderground v.1.15,2013-01-19 23:03:00,
2013-01-19 17:09:00,43.5,32.9,29.69,West,275,4.0,16.0,66,0.00,,,0.00,0,Wunderground v.1.15,2013-01-19 23:09:00,
2013-01-19 17:14:00,43.3,32.7,29.70,SW,233,6.0,11.0,66,0.00,,,0.00,0,Wunderground v.1.15,2013-01-19 23:14:00,
2013-01-19 17:19:00,43.2,32.6,29.69,West,271,10.0,18.0,66,0.00,,,0.00,0,Wunderground v.1.15,2013-01-19 23:19:00,
2013-01-19 17:24:00,43.0,32.4,29.69,West,275,13.0,13.0,66,0.00,,,0.00,0,Wunderground v.1.15,2013-01-19 23:24:00,
2013-01-19 17:30:00,42.9,31.6,29.69,SW,227,11.0,11.0,64,0.00,,,0.00,0,Wunderground v.1.15,2013-01-19 23:30:00,
2013-01-19 17:35:00,42.8,31.5,29.70,WNW,294,5.0,16.0,64,0.00,,,0.00,0,Wunderground v.1.15,2013-01-19 23:35:00,
2013-01-19 17:40:00,42.5,31.6,29.70,WSW,250,6.0,9.0,65,0.00,,,0.00,0,Wunderground v.1.15,2013-01-19 23:40:00,
2013-01-19 17:45:00,42.4,31.5,29.71,West,265,17.0,21.0,65,0.00,,,0.00,0,Wunderground v.1.15,2013-01-19 23:45:00,
2013-01-19 17:51:00,42.4,31.5,29.71,WSW,256,8.0,20.0,65,0.00,,,0.00,0,Wunderground v.1.15,2013-01-19 23:51:00,
2013-01-19 17:57:00,42.3,31.4,29.72,WSW,254,7.0,22.0,65,0.00,,,0.00,0,Wunderground v.1.15,2013-01-19 23:57:00,
2013-01-19 18:02:00,42.0,31.5,29.72,SW,225,12.0,12.0,66,0.00,,,0.00,0,Wunderground v.1.15,2013-01-20 00:02:00,
2013-01-19 18:07:00,41.8,31.6,29.72,WSW,245,12.0,22.0,67,0.00,,,0.00,0,Wunderground v.1.15,2013-01-20 00:07:00,
2013-01-19 18:12:00,41.7,30.8,29.72,West,279,14.0,32.0,65,0.00,,,0.00,0,Wunderground v.1.15,2013-01-20 00:12:00,
2013-01-19 18:18:00,41.5,31.0,29.72,WSW,251,12.0,32.0,66,0.00,,,0.00,0,Wunderground v.1.15,2013-01-20 00:18:00,
2013-01-19 18:23:00,41.3,30.0,29.73,West,259,7.0,20.0,64,0.00,,,0.00,0,Wunderground v.1.15,2013-01-20 00:23:00,
2013-01-19 18:28:00,41.3,30.0,29.73,WNW,296,10.0,25.0,64,0.00,,,0.00,0,Wunderground v.1.15,2013-01-20 00:28:00,
2013-01-19 18:33:00,41.1,29.8,29.73,WNW,299,12.0,21.0,64,0.00,,,0.00,0,Wunderground v.1.15,2013-01-20 00:33:00,
2013-01-19 18:38:00,40.9,29.3,29.73,West,267,13.0,21.0,63,0.00,,,0.00,0,Wunderground v.1.15,2013-01-20 00:38:00,
2013-01-19 18:43:00,40.6,27.8,29.73,WNW,284,18.0,22.0,60,0.00,,,0.00,0,Wunderground v.1.15,2013-01-20 00:43:00,
2013-01-19 18:48:00,40.2,27.8,29.73,WNW,303,11.0,22.0,61,0.00,,,0.00,0,Wunderground v.1.15,2013-01-20 00:48:00,
2013-01-19 18:53:00,40.1,27.3,29.73,West,277,9.0,28.0,60,0.00,,,0.00,0,Wunderground v.1.15,2013-01-20 00:53:00,
2013-01-19 18:58:00,40.0,26.0,29.74,WSW,244,12.0,28.0,57,0.00,,,0.00,0,Wunderground v.1.15,2013-01-20 00:58:00,
2013-01-19 19:03:00,39.7,23.5,29.73,WNW,292,7.0,25.0,52,0.00,,,0.00,0,Wunderground v.1.15,2013-01-20 01:03:00,
2013-01-19 19:08:00,39.6,22.0,29.73,WSW,254,15.0,28.0,49,0.00,,,0.00,0,Wunderground v.1.15,2013-01-20 01:08:00,
2013-01-19 19:13:00,39.2,21.6,29.73,WNW,300,10.0,16.0,49,0.00,,,0.00,0,Wunderground v.1.15,2013-01-20 01:13:00,
2013-01-19 19:18:00,39.0,24.6,29.73,West,263,10.0,22.0,56,0.00,,,0.00,0,Wunderground v.1.15,2013-01-20 01:18:00,
2013-01-19 19:23:00,38.6,24.7,29.73,West,261,12.0,27.0,57,0.00,,,0.00,0,Wunderground v.1.15,2013-01-20 01:23:00,
2013-01-19 19:28:00,38.3,23.5,29.73,West,278,14.0,27.0,55,0.00,,,0.00,0,Wunderground v.1.15,2013-01-20 01:28:00,
2013-01-19 19:34:00,37.9,20.4,29.73,West,269,20.0,22.0,49,0.00,,,0.00,0,Wunderground v.1.15,2013-01-20 01:34:00,
2013-01-19 19:39:00,37.1,16.6,29.73,West,270,13.0,32.0,43,0.00,,,0.00,0,Wunderground v.1.15,2013-01-20 01:39:00,
2013-01-19 19:44:00,36.6,17.2,29.74,West,271,8.0,22.0,45,0.00,,,0.00,0,Wunderground v.1.15,2013-01-20 01:44:00,
2013-01-19 19:49:00,36.0,18.2,29.74,West,271,15.0,22.0,48,0.00,,,0.00,0,Wunderground v.1.15,2013-01-20 01:49:00,
2013-01-19 19:54:00,35.5,18.2,29.74,West,259,12.0,19.0,49,0.00,,,0.00,0,Wunderground v.1.15,2013-01-20 01:54:00,
2013-01-19 19:59:00,34.9,14.6,29.75,WNW,302,28.0,28.0,43,0.00,,,0.00,0,Wunderground v.1.15,2013-01-20 01:59:00,
2013-01-19 20:08:00,33.5,14.4,29.76,West,271,9.0,21.0,45,0.00,,,0.00,0,Wunderground v.1.15,2013-01-20 02:08:00,
2013-01-19 20:13:00,32.8,16.2,29.77,WNW,289,15.0,20.0,50,0.00,,,0.00,0,Wunderground v.1.15,2013-01-20 02:13:00,
2013-01-19 20:18:00,31.9,15.8,29.78,WSW,257,13.0,33.0,51,0.00,,,0.00,0,Wunderground v.1.15,2013-01-20 02:18:00,
2013-01-19 20:23:00,30.5,14.0,29.79,NW,315,14.0,36.0,50,0.00,,,0.00,0,Wunderground v.1.15,2013-01-20 02:23:00,
2013-01-19 20:28:00,28.9,11.2,29.80,WNW,284,31.0,36.0,47,0.00,,,0.00,0,Wunderground v.1.15,2013-01-20 02:28:00,
2013-01-19 20:33:00,27.4,9.3,29.81,West,272,17.0,26.0,46,0.00,,,0.00,0,Wunderground v.1.15,2013-01-20 02:33:00,
2013-01-19 20:39:00,26.5,9.0,29.81,NW,312,18.0,31.0,47,0.00,,,0.00,0,Wunderground v.1.15,2013-01-20 02:39:00,
2013-01-19 20:44:00,25.9,9.3,29.82,WNW,302,11.0,26.0,49,0.00,,,0.00,0,Wunderground v.1.15,2013-01-20 02:44:00,
2013-01-19 20:49:00,25.4,9.3,29.82,WNW,283,13.0,26.0,50,0.00,,,0.00,0,Wunderground v.1.15,2013-01-20 02:49:00,
2013-01-19 20:54:00,24.9,9.7,29.83,WNW,298,15.0,20.0,52,0.00,,,0.00,0,Wunderground v.1.15,2013-01-20 02:54:00,
2013-01-19 20:59:00,24.4,9.7,29.84,WNW,286,15.0,30.0,53,0.00,,,0.00,0,Wunderground v.1.15,2013-01-20 02:59:00,
2013-01-19 21:04:00,23.9,10.1,29.84,NW,309,30.0,30.0,55,0.00,,,0.00,0,Wunderground v.1.15,2013-01-20 03:04:00,
2013-01-19 21:09:00,23.3,9.5,29.84,West,268,15.0,34.0,55,0.00,,,0.00,0,Wunderground v.1.15,2013-01-20 03:09:00,
2013-01-19 21:14:00,22.8,11.3,29.85,West,279,21.0,25.0,61,0.00,,,0.00,0,Wunderground v.1.15,2013-01-20 03:14:00,
2013-01-19 21:19:00,22.5,9.1,29.85,WSW,258,17.0,26.0,56,0.00,,,0.00,0,Wunderground v.1.15,2013-01-20 03:19:00,
2013-01-19 21:24:00,22.2,9.3,29.86,WNW,291,15.0,25.0,57,0.00,,,0.00,0,Wunderground v.1.15,2013-01-20 03:24:00,
2013-01-19 21:30:00,22.0,9.5,29.86,West,271,11.0,14.0,58,0.00,,,0.00,0,Wunderground v.1.15,2013-01-20 03:30:00,
2013-01-19 21:35:00,21.7,9.6,29.87,WSW,246,7.0,22.0,59,0.00,,,0.00,0,Wunderground v.1.15,2013-01-20 03:35:00,
2013-01-19 21:40:00,21.4,9.3,29.88,WNW,294,16.0,16.0,59,0.00,,,0.00,0,Wunderground v.1.15,2013-01-20 03:40:00,
2013-01-19 21:45:00,20.9,8.8,29.88,West,276,10.0,26.0,59,0.00,,,0.00,0,Wunderground v.1.15,2013-01-20 03:45:00,
2013-01-19 21:50:00,20.4,8.3,29.89,WNW,297,10.0,15.0,59,0.00,,,0.00,0,Wunderground v.1.15,2013-01-20 03:50:00,
2013-01-19 21:55:00,20.1,8.4,29.89,WNW,286,8.0,19.0,60,0.00,,,0.00,0,Wunderground v.1.15,2013-01-20 03:55:00,
2013-01-19 22:00:00,19.9,8.6,29.90,WNW,291,14.0,15.0,61,0.00,,,0.00,0,Wunderground v.1.15,2013-01-20 04:00:00,
2013-01-19 22:05:00,19.7,8.0,29.90,WNW,294,18.0,25.0,60,0.00,,,0.00,0,Wunderground v.1.15,2013-01-20 04:05:00,
2013-01-19 22:10:00,19.5,7.5,29.91,WNW,292,11.0,14.0,59,0.00,,,0.00,0,Wunderground v.1.15,2013-01-20 04:10:00,
2013-01-19 22:15:00,19.3,7.7,29.90,WNW,296,24.0,25.0,60,0.00,,,0.00,0,Wunderground v.1.15,2013-01-20 04:15:00,
2013-01-19 22:20:00,19.1,7.5,29.91,WNW,288,7.0,23.0,60,0.00,,,0.00,0,Wunderground v.1.15,2013-01-20 04:20:00,
2013-01-19 22:25:00,18.9,7.3,29.92,NW,317,17.0,24.0,60,0.00,,,0.00,0,Wunderground v.1.15,2013-01-20 04:25:00,
2013-01-19 22:31:00,18.7,6.7,29.92,NNW,340,21.0,21.0,59,0.00,,,0.00,0,Wunderground v.1.15,2013-01-20 04:31:00,
2013-01-19 22:41:00,18.2,6.3,29.93,NW,311,10.0,23.0,59,0.00,,,0.00,0,Wunderground v.1.15,2013-01-20 04:41:00,
2013-01-19 22:46:00,18.0,6.1,29.93,WNW,300,17.0,29.0,59,0.00,,,0.00,0,Wunderground v.1.15,2013-01-20 04:46:00,
2013-01-19 22:51:00,17.8,6.2,29.94,NW,323,7.0,25.0,60,0.00,,,0.00,0,Wunderground v.1.15,2013-01-20 04:51:00,
2013-01-19 22:57:00,17.7,6.5,29.94,NW,319,8.0,25.0,61,0.00,,,0.00,0,Wunderground v.1.15,2013-01-20 04:57:00,
2013-01-19 23:01:00,17.6,6.8,29.94,West,275,4.0,16.0,62,0.00,,,0.00,0,Wunderground v.1.15,2013-01-20 05:01:00,
2013-01-19 23:03:00,17.5,6.7,29.95,West,263,14.0,20.0,62,0.00,,,0.00,0,Wunderground v.1.15,2013-01-20 05:03:00,
2013-01-19 23:08:00,17.3,6.8,29.95,West,278,13.0,20.0,63,0.00,,,0.00,0,Wunderground v.1.15,2013-01-20 05:08:00,
2013-01-19 23:13:00,17.2,6.4,29.95,West,280,22.0,28.0,62,0.00,,,0.00,0,Wunderground v.1.15,2013-01-20 05:13:00,
2013-01-19 23:18:00,16.8,5.7,29.97,NW,309,28.0,34.0,61,0.00,,,0.00,0,Wunderground v.1.15,2013-01-20 05:18:00,
2013-01-19 23:23:00,16.6,5.5,29.97,West,280,12.0,31.0,61,0.00,,,0.00,0,Wunderground v.1.15,2013-01-20 05:23:00,
2013-01-19 23:28:00,16.3,5.5,29.97,WNW,298,12.0,31.0,62,0.00,,,0.00,0,Wunderground v.1.15,2013-01-20 05:28:00,
2013-01-19 23:33:00,16.2,5.5,29.98,West,262,13.0,29.0,62,0.00,,,0.00,0,Wunderground v.1.15,2013-01-20 05:33:00,
2013-01-19 23:38:00,15.9,5.2,29.98,WNW,286,11.0,29.0,62,0.00,,,0.00,0,Wunderground v.1.15,2013-01-20 05:38:00,
2013-01-19 23:43:00,15.8,5.1,29.99,West,280,10.0,24.0,62,0.00,,,0.00,0,Wunderground v.1.15,2013-01-20 05:43:00,
2013-01-19 23:48:00,15.6,4.9,29.99,West,277,17.0,32.0,62,0.00,,,0.00,0,Wunderground v.1.15,2013-01-20 05:48:00,
2013-01-19 23:53:00,15.2,4.5,30.00,WNW,294,21.0,25.0,62,0.00,,,0.00,0,Wunderground v.1.15,2013-01-20 05:53:00,
2013-01-19 23:58:00,15.0,4.7,30.00,West,269,10.0,29.0,63,0.00,,,0.00,0,Wunderground v.1.15,2013-01-20 05:58:00,